Wilson Algeciras — 9HA2471 — position and weather

sailwx.info

Track history (hours):
 
Tides and Currents Weather Stations Pressure Air Temp Water Temp Dewpoint Dewpoint Depression Visibility Wind Speed Wind Dir Waves Ship Positions

Wilson Algeciras

Last reported at 2014-Jul-27 20:28 UTC. Time now 2014-Jul-28 10:18 UTC.
Position N 66°45' E 013°13'.

Length 90 m; draft 3 m.

Type: Ship. MMSI: 248689000.

Date/timePositionNaut miles runAvg speedWind from/ knotsBaromVisibWave heightAir tempDewpointWater temp
2014-Jul-27 20:28N 66°45' E 013°13'910.2
2014-Jul-27 19:33N 66°36' E 013°04'10 8.8
2014-Jul-27 18:25N 66°26' E 012°60'8 9.4
2014-Jul-27 17:33N 66°19' E 012°49'1010.0
2014-Jul-27 16:34N 66°15' E 012°26'14 9.4
2014-Jul-27 15:04N 66°21' E 011°55'  
2014-Jul-23 19:18N 59°29' E 004°38'810.1
2014-Jul-23 18:33N 59°22' E 004°38'1010.1
2014-Jul-23 17:33N 59°12' E 004°43'1110.5
2014-Jul-23 16:33N 59°02' E 004°51'1110.6
2014-Jul-23 15:33N 58°52' E 004°58'1110.6
2014-Jul-23 14:33N 58°42' E 005°06'1310.4
2014-Jul-23 13:18N 58°30' E 005°16'810.7
2014-Jul-23 12:33N 58°23' E 005°22'1310.1
2014-Jul-23 11:14N 58°11' E 005°31'142157.2
2014-Jul-23 10:20N 55°53' E 006°39'31 3.0
2014-Jul-23 00:05N 56°23' E 006°24'610.0
2014-Jul-22 23:28N 56°17' E 006°26'1310.0
2014-Jul-22 22:08N 56°05' E 006°33'6 9.8
2014-Jul-22 21:33N 55°59' E 006°36'1818.1
2014-Jul-22 20:33N 55°42' E 006°46'13 9.5
2014-Jul-22 19:11N 55°30' E 006°52'2 2.6
2014-Jul-22 18:32N 55°31' E 006°51'9 9.2
2014-Jul-22 17:33N 55°22' E 006°56'9 9.4
2014-Jul-22 16:33N 55°13' E 006°60'1010.3
2014-Jul-22 15:33N 55°03' E 007°05'9 9.5
2014-Jul-22 14:33N 54°54' E 007°09'9 9.0
2014-Jul-22 13:33N 54°46' E 007°13'10 9.9
2014-Jul-22 12:33N 54°36' E 007°18'1010.3
2014-Jul-22 11:32N 54°26' E 007°22'1010.4
2014-Jul-22 10:33N 54°16' E 007°27'8 8.1
2014-Jul-22 09:33N 54°09' E 007°32'1010.1
2014-Jul-22 08:33N 53°60' E 007°40'10 9.3
2014-Jul-22 07:29N 53°53' E 007°52'9 9.5
2014-Jul-22 06:33N 53°50' E 008°06'8 8.4
2014-Jul-22 05:33N 53°44' E 008°16'8 7.8
2014-Jul-22 04:33N 53°38' E 008°26'7 6.8
2014-Jul-22 03:33N 53°33' E 008°33'8 7.7
2014-Jul-22 02:33N 53°26' E 008°30'1111.1
2014-Jul-22 01:33N 53°15' E 008°29'10 9.7
2014-Jul-22 00:33N 53°08' E 008°40'2 2.4
2014-Jul-21 23:33N 53°07' E 008°44'0 0.3
2014-Jul-21 22:31N 53°07' E 008°44'0 0.0
2014-Jul-21 21:31N 53°07' E 008°44'0 0.0
2014-Jul-21 20:31N 53°07' E 008°44'0 0.0
2014-Jul-21 20:16N 53°07' E 008°44'0 0.0
2014-Jul-21 19:31N 53°07' E 008°44'0 0.0
2014-Jul-21 18:31N 53°07' E 008°44'0 0.0
2014-Jul-21 17:31N 53°07' E 008°44'0 0.0
2014-Jul-21 16:31N 53°07' E 008°44'0 0.0
2014-Jul-21 15:31N 53°07' E 008°44'0 0.0
2014-Jul-21 14:31N 53°07' E 008°44'0 0.0
2014-Jul-21 13:31N 53°07' E 008°44'0 0.0
2014-Jul-21 12:33N 53°07' E 008°44'0 0.0
2014-Jul-21 11:33N 53°07' E 008°44'0 0.0
2014-Jul-21 10:33N 53°07' E 008°44'0 0.0
2014-Jul-21 09:33N 53°07' E 008°44'0 0.0
2014-Jul-21 08:33N 53°07' E 008°44'0 0.0
2014-Jul-21 07:33N 53°07' E 008°44'0 0.0
2014-Jul-21 06:33N 53°07' E 008°44'0 0.1
2014-Jul-21 05:33N 53°07' E 008°44'0 0.0
2014-Jul-21 04:33N 53°07' E 008°44'0 0.0
2014-Jul-21 03:33N 53°07' E 008°44'0 0.0
2014-Jul-21 02:33N 53°07' E 008°44'0 0.0
2014-Jul-21 01:33N 53°07' E 008°44'0 0.0
2014-Jul-21 00:33N 53°07' E 008°44'0 0.0
2014-Jul-20 23:33N 53°07' E 008°44'0 0.0
2014-Jul-20 22:33N 53°07' E 008°44'0 0.0
2014-Jul-20 21:33N 53°07' E 008°44'0 0.0
2014-Jul-20 20:33N 53°07' E 008°44'0 0.0
2014-Jul-20 19:33N 53°07' E 008°44'0 0.0
2014-Jul-20 18:33N 53°07' E 008°44'0 0.0
2014-Jul-20 17:33N 53°07' E 008°44'0 0.0
2014-Jul-20 16:33N 53°07' E 008°44'0 0.0
2014-Jul-20 15:30N 53°07' E 008°44'0 0.0
2014-Jul-20 14:33N 53°07' E 008°44'0 0.0
2014-Jul-20 13:33N 53°07' E 008°44'0 0.0
2014-Jul-20 12:33N 53°07' E 008°44'0 0.0
2014-Jul-20 11:33N 53°07' E 008°44'1 0.8
2014-Jul-20 10:34N 53°07' E 008°43'2 2.4
2014-Jul-20 09:34N 53°06' E 008°46'0 0.0
2014-Jul-20 08:34N 53°06' E 008°46'0 0.0
2014-Jul-20 07:34N 53°06' E 008°46'0 0.0
2014-Jul-20 06:34N 53°06' E 008°46'0 0.0
2014-Jul-20 05:34N 53°06' E 008°46'0 0.0
2014-Jul-20 04:34N 53°06' E 008°46'0 0.0
2014-Jul-20 03:34N 53°06' E 008°46'0 0.0
2014-Jul-20 02:34N 53°06' E 008°46'0 0.0
2014-Jul-20 01:34N 53°06' E 008°46'0 0.0
2014-Jul-20 00:34N 53°06' E 008°46'0 0.0
2014-Jul-19 23:34N 53°06' E 008°46'0 0.0
2014-Jul-19 22:34N 53°06' E 008°46'0 0.0
2014-Jul-19 21:34N 53°06' E 008°46'0 0.0
2014-Jul-19 20:34N 53°06' E 008°46'0 0.0
2014-Jul-19 19:34N 53°06' E 008°46'0 0.0
2014-Jul-19 18:34N 53°06' E 008°46'0 0.0
2014-Jul-19 17:34N 53°06' E 008°46'0 0.0
2014-Jul-19 16:33N 53°06' E 008°46'0 0.0
2014-Jul-19 15:34N 53°06' E 008°46'0 0.0
2014-Jul-19 14:33N 53°06' E 008°46'0 0.0
2014-Jul-19 13:34N 53°06' E 008°46'0 0.0
2014-Jul-19 12:34N 53°06' E 008°46'0 0.0
2014-Jul-19 11:33N 53°06' E 008°46'0 0.0
2014-Jul-19 10:34N 53°06' E 008°46'0 0.0
2014-Jul-19 09:34N 53°06' E 008°46'0 0.0
2014-Jul-19 08:33N 53°06' E 008°46'0 0.0
2014-Jul-19 07:34N 53°06' E 008°46'0 0.0
2014-Jul-19 06:34N 53°06' E 008°46'0 0.0
2014-Jul-19 05:34N 53°06' E 008°46'0 0.0
2014-Jul-19 04:34N 53°06' E 008°46'0 0.0
2014-Jul-19 03:34N 53°06' E 008°46'0 0.0
2014-Jul-19 02:34N 53°06' E 008°46'0 0.0
2014-Jul-19 01:34N 53°06' E 008°46'0 0.0
2014-Jul-19 00:34N 53°06' E 008°46'0 0.0
2014-Jul-18 23:33N 53°06' E 008°46'0 0.0
2014-Jul-18 22:34N 53°06' E 008°46'0 0.0
2014-Jul-18 21:34N 53°06' E 008°46'0 0.0
2014-Jul-18 20:34N 53°06' E 008°46'0 0.0
2014-Jul-18 19:34N 53°06' E 008°46'3 2.5
2014-Jul-18 18:33N 53°07' E 008°42'1 0.5
2014-Jul-18 17:33N 53°07' E 008°43'0 0.0
2014-Jul-18 16:33N 53°07' E 008°43'0 0.0
2014-Jul-18 15:33N 53°07' E 008°43'0 0.0
2014-Jul-18 14:33N 53°07' E 008°43'0 0.0
2014-Jul-18 13:33N 53°07' E 008°43'0 0.0
2014-Jul-18 12:33N 53°07' E 008°43'0 0.0
2014-Jul-18 11:33N 53°07' E 008°43'0 0.0
2014-Jul-18 10:33N 53°07' E 008°43'0 0.0
2014-Jul-18 09:33N 53°07' E 008°43'0 0.0
2014-Jul-18 08:33N 53°07' E 008°43'0 0.0
2014-Jul-18 07:33N 53°07' E 008°43'0 0.0
2014-Jul-18 06:33N 53°07' E 008°43'0 0.0
2014-Jul-18 05:33N 53°07' E 008°43'0 0.0
2014-Jul-18 04:33N 53°07' E 008°43'0 0.0
2014-Jul-18 03:33N 53°07' E 008°43'0 0.0
2014-Jul-18 02:33N 53°07' E 008°43'0 0.0
2014-Jul-18 01:33N 53°07' E 008°43'0 0.0
2014-Jul-18 00:33N 53°07' E 008°43'0 0.0
2014-Jul-17 23:33N 53°07' E 008°43'0 0.0
2014-Jul-17 22:33N 53°07' E 008°43'0 0.0
2014-Jul-17 21:33N 53°07' E 008°43'0 0.0
2014-Jul-17 20:31N 53°07' E 008°43'  
Track history (hours):
 
Tides and Currents Weather Stations Pressure Air Temp Water Temp Dewpoint Dewpoint Depression Visibility Wind Speed Wind Dir Waves Ship Positions

Wilson Algeciras

Last reported at 2014-Jul-27 20:28 UTC. Time now 2014-Jul-28 10:18 UTC.
Position N 66°45' E 013°13'.

Length 90 m; draft 3 m.

Type: Ship. MMSI: 248689000.

Date/timePositionNaut miles runAvg speedWind from/ knotsBaromVisibWave heightAir tempDewpointWater temp
2014-Jul-27 20:28N 66°45' E 013°13'910.2
2014-Jul-27 19:33N 66°36' E 013°04'10 8.8
2014-Jul-27 18:25N 66°26' E 012°60'8 9.4
2014-Jul-27 17:33N 66°19' E 012°49'1010.0
2014-Jul-27 16:34N 66°15' E 012°26'14 9.4
2014-Jul-27 15:04N 66°21' E 011°55'  
2014-Jul-23 19:18N 59°29' E 004°38'810.1
2014-Jul-23 18:33N 59°22' E 004°38'1010.1
2014-Jul-23 17:33N 59°12' E 004°43'1110.5
2014-Jul-23 16:33N 59°02' E 004°51'1110.6
2014-Jul-23 15:33N 58°52' E 004°58'1110.6
2014-Jul-23 14:33N 58°42' E 005°06'1310.4
2014-Jul-23 13:18N 58°30' E 005°16'810.7
2014-Jul-23 12:33N 58°23' E 005°22'1310.1
2014-Jul-23 11:14N 58°11' E 005°31'142157.2
2014-Jul-23 10:20N 55°53' E 006°39'31 3.0
2014-Jul-23 00:05N 56°23' E 006°24'610.0
2014-Jul-22 23:28N 56°17' E 006°26'1310.0
2014-Jul-22 22:08N 56°05' E 006°33'6 9.8
2014-Jul-22 21:33N 55°59' E 006°36'1818.1
2014-Jul-22 20:33N 55°42' E 006°46'13 9.5
2014-Jul-22 19:11N 55°30' E 006°52'2 2.6
2014-Jul-22 18:32N 55°31' E 006°51'9 9.2
2014-Jul-22 17:33N 55°22' E 006°56'9 9.4
2014-Jul-22 16:33N 55°13' E 006°60'1010.3
2014-Jul-22 15:33N 55°03' E 007°05'9 9.5
2014-Jul-22 14:33N 54°54' E 007°09'9 9.0
2014-Jul-22 13:33N 54°46' E 007°13'10 9.9
2014-Jul-22 12:33N 54°36' E 007°18'1010.3
2014-Jul-22 11:32N 54°26' E 007°22'1010.4
2014-Jul-22 10:33N 54°16' E 007°27'8 8.1
2014-Jul-22 09:33N 54°09' E 007°32'1010.1
2014-Jul-22 08:33N 53°60' E 007°40'10 9.3
2014-Jul-22 07:29N 53°53' E 007°52'9 9.5
2014-Jul-22 06:33N 53°50' E 008°06'8 8.4
2014-Jul-22 05:33N 53°44' E 008°16'8 7.8
2014-Jul-22 04:33N 53°38' E 008°26'7 6.8
2014-Jul-22 03:33N 53°33' E 008°33'8 7.7
2014-Jul-22 02:33N 53°26' E 008°30'1111.1
2014-Jul-22 01:33N 53°15' E 008°29'10 9.7
2014-Jul-22 00:33N 53°08' E 008°40'2 2.4
2014-Jul-21 23:33N 53°07' E 008°44'0 0.3
2014-Jul-21 22:31N 53°07' E 008°44'0 0.0
2014-Jul-21 21:31N 53°07' E 008°44'0 0.0
2014-Jul-21 20:31N 53°07' E 008°44'0 0.0
2014-Jul-21 20:16N 53°07' E 008°44'0 0.0
2014-Jul-21 19:31N 53°07' E 008°44'0 0.0
2014-Jul-21 18:31N 53°07' E 008°44'0 0.0
2014-Jul-21 17:31N 53°07' E 008°44'0 0.0
2014-Jul-21 16:31N 53°07' E 008°44'0 0.0
2014-Jul-21 15:31N 53°07' E 008°44'0 0.0
2014-Jul-21 14:31N 53°07' E 008°44'0 0.0
2014-Jul-21 13:31N 53°07' E 008°44'0 0.0
2014-Jul-21 12:33N 53°07' E 008°44'0 0.0
2014-Jul-21 11:33N 53°07' E 008°44'0 0.0
2014-Jul-21 10:33N 53°07' E 008°44'0 0.0
2014-Jul-21 09:33N 53°07' E 008°44'0 0.0
2014-Jul-21 08:33N 53°07' E 008°44'0 0.0
2014-Jul-21 07:33N 53°07' E 008°44'0 0.0
2014-Jul-21 06:33N 53°07' E 008°44'0 0.1
2014-Jul-21 05:33N 53°07' E 008°44'0 0.0
2014-Jul-21 04:33N 53°07' E 008°44'0 0.0
2014-Jul-21 03:33N 53°07' E 008°44'0 0.0
2014-Jul-21 02:33N 53°07' E 008°44'0 0.0
2014-Jul-21 01:33N 53°07' E 008°44'0 0.0
2014-Jul-21 00:33N 53°07' E 008°44'0 0.0
2014-Jul-20 23:33N 53°07' E 008°44'0 0.0
2014-Jul-20 22:33N 53°07' E 008°44'0 0.0
2014-Jul-20 21:33N 53°07' E 008°44'0 0.0
2014-Jul-20 20:33N 53°07' E 008°44'0 0.0
2014-Jul-20 19:33N 53°07' E 008°44'0 0.0
2014-Jul-20 18:33N 53°07' E 008°44'0 0.0
2014-Jul-20 17:33N 53°07' E 008°44'0 0.0
2014-Jul-20 16:33N 53°07' E 008°44'0 0.0
2014-Jul-20 15:30N 53°07' E 008°44'0 0.0
2014-Jul-20 14:33N 53°07' E 008°44'0 0.0
2014-Jul-20 13:33N 53°07' E 008°44'0 0.0
2014-Jul-20 12:33N 53°07' E 008°44'0 0.0
2014-Jul-20 11:33N 53°07' E 008°44'1 0.8
2014-Jul-20 10:34N 53°07' E 008°43'2 2.4
2014-Jul-20 09:34N 53°06' E 008°46'0 0.0
2014-Jul-20 08:34N 53°06' E 008°46'0 0.0
2014-Jul-20 07:34N 53°06' E 008°46'0 0.0
2014-Jul-20 06:34N 53°06' E 008°46'0 0.0
2014-Jul-20 05:34N 53°06' E 008°46'0 0.0
2014-Jul-20 04:34N 53°06' E 008°46'0 0.0
2014-Jul-20 03:34N 53°06' E 008°46'0 0.0
2014-Jul-20 02:34N 53°06' E 008°46'0 0.0
2014-Jul-20 01:34N 53°06' E 008°46'0 0.0
2014-Jul-20 00:34N 53°06' E 008°46'0 0.0
2014-Jul-19 23:34N 53°06' E 008°46'0 0.0
2014-Jul-19 22:34N 53°06' E 008°46'0 0.0
2014-Jul-19 21:34N 53°06' E 008°46'0 0.0
2014-Jul-19 20:34N 53°06' E 008°46'0 0.0
2014-Jul-19 19:34N 53°06' E 008°46'0 0.0
2014-Jul-19 18:34N 53°06' E 008°46'0 0.0
2014-Jul-19 17:34N 53°06' E 008°46'0 0.0
2014-Jul-19 16:33N 53°06' E 008°46'0 0.0
2014-Jul-19 15:34N 53°06' E 008°46'0 0.0
2014-Jul-19 14:33N 53°06' E 008°46'0 0.0
2014-Jul-19 13:34N 53°06' E 008°46'0 0.0
2014-Jul-19 12:34N 53°06' E 008°46'0 0.0
2014-Jul-19 11:33N 53°06' E 008°46'0 0.0
2014-Jul-19 10:34N 53°06' E 008°46'0 0.0
2014-Jul-19 09:34N 53°06' E 008°46'0 0.0
2014-Jul-19 08:33N 53°06' E 008°46'0 0.0
2014-Jul-19 07:34N 53°06' E 008°46'0 0.0
2014-Jul-19 06:34N 53°06' E 008°46'0 0.0
2014-Jul-19 05:34N 53°06' E 008°46'0 0.0
2014-Jul-19 04:34N 53°06' E 008°46'0 0.0
2014-Jul-19 03:34N 53°06' E 008°46'0 0.0
2014-Jul-19 02:34N 53°06' E 008°46'0 0.0
2014-Jul-19 01:34N 53°06' E 008°46'0 0.0
2014-Jul-19 00:34N 53°06' E 008°46'0 0.0
2014-Jul-18 23:33N 53°06' E 008°46'0 0.0
2014-Jul-18 22:34N 53°06' E 008°46'0 0.0
2014-Jul-18 21:34N 53°06' E 008°46'0 0.0
2014-Jul-18 20:34N 53°06' E 008°46'0 0.0
2014-Jul-18 19:34N 53°06' E 008°46'3 2.5
2014-Jul-18 18:33N 53°07' E 008°42'1 0.5
2014-Jul-18 17:33N 53°07' E 008°43'0 0.0
2014-Jul-18 16:33N 53°07' E 008°43'0 0.0
2014-Jul-18 15:33N 53°07' E 008°43'0 0.0
2014-Jul-18 14:33N 53°07' E 008°43'0 0.0
2014-Jul-18 13:33N 53°07' E 008°43'0 0.0
2014-Jul-18 12:33N 53°07' E 008°43'0 0.0
2014-Jul-18 11:33N 53°07' E 008°43'0 0.0
2014-Jul-18 10:33N 53°07' E 008°43'0 0.0
2014-Jul-18 09:33N 53°07' E 008°43'0 0.0
2014-Jul-18 08:33N 53°07' E 008°43'0 0.0
2014-Jul-18 07:33N 53°07' E 008°43'0 0.0
2014-Jul-18 06:33N 53°07' E 008°43'0 0.0
2014-Jul-18 05:33N 53°07' E 008°43'0 0.0
2014-Jul-18 04:33N 53°07' E 008°43'0 0.0
2014-Jul-18 03:33N 53°07' E 008°43'0 0.0
2014-Jul-18 02:33N 53°07' E 008°43'0 0.0
2014-Jul-18 01:33N 53°07' E 008°43'0 0.0
2014-Jul-18 00:33N 53°07' E 008°43'0 0.0
2014-Jul-17 23:33N 53°07' E 008°43'0 0.0
2014-Jul-17 22:33N 53°07' E 008°43'0 0.0
2014-Jul-17 21:33N 53°07' E 008°43'0 0.0
2014-Jul-17 20:31N 53°07' E 008°43'  

Dump ship's entire track history